Orbital elements:
1999 HF1
Epoch 2000 Feb. 26.0 TT = JDT 2451600.5                 Williams
M 162.91290              (2000.0)            P               Q
n   1.32959066     Peri.  253.33805     +0.61356559     -0.76969926
a   0.8190758      Node   155.96631     +0.78146906     +0.62392929
e   0.4624892      Incl.   25.65862     -0.11332858     +0.13518614
P   0.74           H   14.5           G   0.15           U   4
Residuals in seconds of arc
990420 704  0.3-  0.3-    990505 557  0.1+  0.2+    990529 726  0.3+  0.2-
990420 699  1.3-  0.6+    990505 557  0.2+  0.1-    990529 726  0.5+  0.3+
990420 704  0.5-  0.1-    990505 557  0.2+  0.1+    990529 726  0.2+  0.6+
990420 699  1.1-  0.9+    990505 557  0.2+  0.2-    990529 900  0.3+  0.5+
990420 704  0.5-  0.0     990506 557  0.2+  0.1+    990529 900  0.8-  0.3+
990420 699  1.4-  1.1+    990506 151  0.2+  0.2+    990530 726  0.4-  1.2+
990420 704  0.9-  0.3-    990506 151  0.1+  0.6+    990530 726  0.1+  0.7+
990420 704  0.5-  0.1-    990506 151  0.5+  0.5+    990530 726  0.2-  0.5+
990420 046  0.2+  0.1+    990506 151  0.7+  0.2+    990530 726  0.7-  0.6-
990420 046  0.1+  0.2+    990506 151  0.7+  0.6-    990530 121  0.5+  0.1-
990420 046  0.2+  0.1+    990506 151  0.7+  0.4+    990530 151  0.9+  0.7-
990420 046  0.2+  0.1+    990507 704  0.1+  0.5+    990530 151  0.6-  0.3-
990421 758  0.2+  0.1+    990507 704  0.6+  0.5-    990530 151  0.0   0.8+
990421 758  0.2+  0.1+    990507 704  0.7+  0.4+    990530 151  0.2-  0.3+
990421 758  0.3+  0.0     990507 704  0.5+  0.1-    990530 151  0.6+  0.2+
990421 758  0.1+  0.2+    990507 704  0.8+  0.1+    990530 121  0.6+  0.0
990421 557  0.0   0.3-    990507 360  0.8+  0.0     990530 121  0.2+  0.0
990421 557  0.1+  0.2-    990507 360  0.7+  0.2+    990530 121  0.6+  0.2+
990421 557  0.1+  0.2-    990507 360  0.9+  0.2+    990530 121  0.6+  0.0
990421 557  0.2+  0.3-    990507 557  0.1+  0.1+    990602 118  0.1+  0.0
990421 758  0.4+  0.0     990507 557  0.2+  0.0     990602 118  0.2+  0.2+
990421 758  0.5+  0.2+    990507 557  0.2+  0.1+    990604 704  0.4-  0.1-
990421 711  0.4-  0.4-    990508 557  0.3+  0.1+    990604 704  0.1+  0.2-
990421 711  0.4-  0.4-    990508 704  0.8+  0.4+    990604 704  0.2+  0.1+
990421 711  0.4-  0.3-    990508 704  0.5+  0.3+    990604 704  0.5-  0.1+
990421 658  0.4+  0.0     990508 704  0.4+  0.4-    990604 704  0.1-  0.4-
990421 658  0.5+  0.4+    990508 704  0.1+  0.2+    990604 360  0.1-  0.1-
990421 658  0.2+  0.4+    990508 704  0.4+  0.5+    990604 360  0.1-  0.1-
990421 151  0.1-  0.5-    990508 355  0.5+  0.3+    990604 360  0.3-  0.3+
990421 151  0.2+  0.6-    990508 355  0.9+  0.5+    990604 151  0.1+  0.3+
990421 151  0.0   0.4-    990508 355  0.7+  0.1+    990604 151  1.2-  0.7-
990421 151  0.0   0.5-    990509 726  0.1+  0.0     990604 151  0.4-  0.6+
990421 151  0.1-  0.5-    990509 726  0.4+  0.0     990604 151  1.0-  0.0
990421 151  0.1+  0.7-    990509 726  0.2+  0.1+    990604 151  0.1-  0.4+
990421 611  0.3+  0.1+    990509 726  0.3+  0.1+    990604 151  0.1+  0.0
990421 611  0.4+  0.1+    990509 726  0.4+  0.2-    990605 739  0.3+  0.4+
990421 611  0.4+  0.4-    990509 726  0.6+  0.1-    990605 739  0.1+  0.3-
990422 658  0.3-  0.3+    990509 726  0.5+  0.2-    990605 739  1.0-  0.8-
990422 658  1.0+  0.3-    990509 726  0.4+  0.2-    990607 704  0.3-  0.1+
990422 658  1.4+  0.6-    990509 118  0.1+  0.1-    990607 704  0.7-  0.4+
990422 151  0.2+  0.2-    990509 118  0.0   0.1+    990607 704  0.3-  0.2+
990422 151  0.3+  0.2-    990509 151  0.6+  0.6-    990607 704  0.1-  0.2+
990422 151  0.3+  0.2-    990509 118  0.1+  0.1+    990607 704  0.3-  0.0
990422 151  0.1+  0.1-    990509 151  0.0   0.5-    990608 704  0.4-  0.0
990422 151  0.2+  0.1-    990509 151  0.1+  0.4-    990608 704  0.7-  0.2-
990422 151  0.4+  0.3-    990509 610  0.3+  0.2-    990608 704  0.6-  0.0
990422 557  0.1+  0.1+    990509 151  0.4+  0.5-    990608 704  0.6-  0.1-
990422 557  0.0   0.1+    990509 610  0.3+  0.1-    990608 704  0.5-  0.2-
990422 557  0.1-  0.1+    990509 557  0.2+  0.0     990609 587  0.0   0.6-
990423 557  0.2+  0.0     990509 610  0.1+  0.1-    990609 587  0.1-  0.7-
990423 557  0.2+  0.1-    990509 151  0.1-  0.0     990611 071  0.1-  0.1+
990423 557  0.2+  0.2-    990509 610  0.0   0.1-    990611 071  0.2+  0.2-
990423 658  0.6-  0.3+    990509 610  0.0   0.0     990611 071  0.1+  0.3+
990423 658  0.1+  0.2-    990509 151  0.3+  0.2-    990611 071  1.8-  1.7-
990423 658  0.4+  0.0     990509 557  0.3+  0.0     990611 071  0.5+  0.1-
990424 557  0.1+  0.1+    990509 127  0.1+  0.4+    990619 151  0.4+  0.8+
990424 557  0.1+  0.1+    990509 127  0.0   0.2+    990619 151  0.7-  0.8-
990424 557  0.1+  0.1+    990509 127  0.3+  0.3+    990619 151  0.5+  0.0
990424 557  0.0   0.1+    990509 557  0.2+  0.0     990619 151  0.0   0.6+
990424 130  0.3+  0.2+    990510 557  0.2+  0.2-    990619 151  0.1-  0.8-
990424 130  0.6+  0.4+    990510 557  0.2+  0.1-    990620 900  0.3-  0.1+
990424 130  0.0   0.3+    990510 739  0.9+  0.1+    990620 900  0.1+  0.0
990424 130  0.5+  0.2-    990510 739  0.4+  0.4-    990622 151  0.4-  0.3+
990425 835  0.2+  0.4-    990511 360  0.4+  0.2+    990622 151  0.4-  0.2+
990425 835  0.5+  0.2-    990511 360  0.1+  0.3+    990622 151  0.7-  0.4+
990425 835  0.2+  0.4-    990511 360  0.1-  0.3+    990622 151  0.2-  0.1-
990425 104  0.3+  0.4+    990511 900  0.2+  0.1+    990622 151  0.5-  0.3-
990425 104  0.3+  0.1-    990511 900  0.3+  0.3+    990625 046  0.1+  0.0
990425 104  0.2+  0.1-    990513 121  0.3+  0.1-    990625 046  0.4+  0.2+
990425 104  0.1+  0.4-    990513 121  0.4-  0.5-    990625 046  0.2+  0.1+
990425 151  0.2+  0.2-    990513 121  0.5+  0.2+    990625 046  0.5+  0.3+
990425 151  0.0   0.2-    990513 121  0.4+  0.4-    990628 151  0.6-  1.2+
990425 151  0.1-  0.1-    990513 121  0.3+  0.2+    990628 151  0.8-  0.7-
990425 151  0.1+  0.1-    990514 557  0.0   0.2-    990628 151  0.4-  0.5-
990425 151  0.0   0.0     990514 557  0.1-  0.0     990628 151  0.1+  0.0
990425 151  0.0   0.2-    990514 557  0.1-  0.1-    990628 151  1.1-  0.7-
990426 726  0.3-  0.2-    990514 557  0.0   0.1-    990629 118  0.8+  0.4+
990426 726  0.0   0.1+    990515 121  0.4+  0.8-    990629 118  0.5+  0.5+
990426 726  0.1+  0.3-    990515 121  0.2-  0.3+    990701 151  0.6+  0.3-
990426 726  0.1-  0.0     990515 127  0.1-  0.1+    990701 151  0.7+  0.8+
990426 726  0.1+  0.1-    990515 127  0.0   0.1-    990701 151  0.2+  0.1-
990426 726  0.1+  0.2-    990515 127  0.0   0.1-    990701 151  0.1-  0.4+
990426 726  0.1+  0.4-    990515 121  0.2+  0.5-    990701 151  0.4+  0.1-
990426 726  0.2-  0.3-    990516 118  0.2+  0.4-    990701 151  0.2-  0.2-
990426 726  0.2-  0.0     990516 118  0.1+  0.6-    990702 151  1.2-  1.4-
990426 726  0.2+  1.0-    990516 118  0.1-  0.3-    990702 151 (2.1-  0.2-)
990426 557  0.4-  0.2-    990516 557  0.1+  0.1-    990702 151  1.0-  0.6-
990426 557  0.2-  0.2-    990516 557  0.2+  0.0     990702 151  0.7-  1.1-
990426 557  0.2-  0.2-    990516 557  0.4+  0.0     990702 151 (2.2-  0.8+)
990426 557  0.3-  0.1+    990517 151  0.6+  1.7+    990711 846  0.4+  0.1+
990427 900  0.1-  0.1+    990517 151  0.9+  0.2+    990711 846  1.0+  0.3+
990427 900  0.2+  0.1-    990517 151  0.5+  0.6+    990712 846  0.0   0.7+
990428 151  0.6-  0.2-    990517 151  0.6-  1.0+    990712 846  0.1+  0.8+
990428 151  0.9-  0.1-    990517 151  0.4+  0.0     990712 846  0.4+  1.3+
990428 151  0.7-  0.1-    990517 151  0.2-  0.1-    990714 587  0.2+  0.2-
990428 151  0.4-  0.4-    990517 628  0.8-  0.1-    990714 587  0.4+  0.1+
990428 151  1.0-  0.2-    990517 628  0.6-  0.5+    990716 151  0.6+  0.6-
990428 151  0.7-  0.1+    990517 628  0.3-  0.0     990716 151  0.4+  0.6-
990428 046  0.1-  0.2-    990518 636  0.4-  0.6+    990716 151  0.3-  0.8-
990428 046  0.1-  0.1-    990518 636  0.3-  0.5+    990716 151  0.2-  0.9-
990428 046  0.1-  0.0     990518 636  0.1-  0.6+    990716 151  0.4-  0.5-
990428 118  0.8-  0.0     990518 151  0.2+  0.8+    990718 595  0.4+  1.0-
990428 118  0.8-  0.1+    990518 151  0.1-  0.3+    990718 595  0.1+  0.9-
990428 118  0.7-  0.0     990518 151  0.1-  0.4+    990718 595  0.2+  0.6-
990428 636  0.5-  0.6-    990518 151  0.1+  0.1+    990724 151  1.2-  0.3+
990428 636  0.2-  0.8-    990518 151  0.0   0.0     990724 151  0.6-  0.6-
990428 636  0.2-  0.6-    990518 557  0.1+  0.2+    990724 151  0.4-  0.0
990429 699  1.1-  1.0+    990518 151  0.4+  0.1+    990724 151  1.0-  0.8-
990429 699  1.2-  1.0+    990518 557  0.1+  0.2+    990724 151  1.4-  1.2-
990429 699  1.0-  0.8+    990518 557  0.1+  0.1+    990725 859  0.4+  0.7-
990429 658  0.3-  0.3-    990519 151  0.4+  0.3-    990725 859  0.1+  0.2+
990429 658  0.6+  0.3-    990519 151  0.0   0.1-    990725 859  0.9+  0.2-
990429 658  0.1+  0.3-    990519 151  0.3+  0.1+    990725 118  0.4+  0.7+
990429 046  0.7-  0.3+    990519 151  0.3-  0.3+    990725 118  0.0   0.8+
990429 046  0.6-  0.3+    990519 151  0.4-  0.1+    990725 118  0.6+  0.7+
990429 046  0.8-  0.3+    990519 151  0.0   0.2+    990725 151  0.8+  1.1+
990429 046  0.7-  0.2+    990520 704  0.6+  0.1+    990725 151  0.0   1.6+
990429 118  0.4-  0.2+    990520 704  0.6+  0.5+    990725 151  0.5-  0.9+
990429 118  0.4-  0.2+    990520 704  0.1+  0.1-    990725 151  0.6-  0.4+
990429 118  0.4-  0.1+    990520 704  0.0   0.1-    990726 151  0.6-  0.4+
990429 636  0.1-  0.0     990520 704  0.2-  0.1+    990726 151  1.0+  1.4+
990429 636  0.1+  0.4+    990520 628  0.0   0.1-    990726 151  0.3-  0.4-
990430 636  0.2-  0.1-    990520 636  0.8+  0.2-    990726 151  0.2+  0.9+
990430 636  0.0   0.1-    990520 628  0.1+  0.2-    990726 595  0.1-  0.9+
990430 726  0.2+  0.2+    990520 636  0.7+  0.0     990726 595  0.3+  0.8+
990430 726  0.2+  0.3+    990520 636  0.9+  0.1-    990726 595  0.3+  0.4+
990430 726  0.3+  0.4+    990520 628  0.6+  0.1-    990729 151  1.0-  1.6-
990430 726  0.1+  0.6+    990520 636  1.1+  0.2-    990729 151  0.8+  0.2-
990430 726  0.1+  0.1+    990520 628  0.0   0.3+    990729 151  1.4+  1.2-
990430 402  0.1-  0.1-    990522 628  0.4+  0.2+    990729 151  1.4-  0.2-
990430 402  0.2-  0.0     990522 628  0.2+  0.2-    990731 540  0.1-  1.2+
990430 402  0.1-  0.0     990522 628  0.1-  0.2+    990731 540  0.3+  0.4+
990430 151  0.5-  0.3+    990523 726  0.4+  0.0     990731 540  0.4-  0.3+
990430 151  0.6-  0.3+    990523 726  0.1+  0.5-    990731 540  1.4+  0.8+
990430 151  0.3-  0.1-    990523 726  0.2-  0.6-    990802 151 (3.1+  0.2-)
990430 151  0.3-  0.0     990523 610  1.0-  0.2+    990802 151  0.6+  0.1+
990430 151  0.5-  0.0     990523 610  0.8-  0.1+    990802 151  0.5+  0.5-
990430 151  0.1-  0.2+    990523 610  0.8-  0.1+    990802 151  0.0   0.3-
990430 636  0.7-  1.0+    990523 610  0.7-  0.1+    990802 151  1.6-  0.3+
990430 636  0.7-  0.9+    990523 610  0.5-  0.1+    990802 151  0.5+  1.3-
990430 636  0.6-  0.9+    990523 046  0.4-  0.2+    990803 151  1.1+  0.1-
990430 636  0.5-  0.8+    990523 046  0.1+  0.2-    990803 151  0.1+  1.0+
990501 726  0.5-  0.0     990523 046  0.1-  0.1+    990803 151  0.6+  0.3+
990501 726  0.4-  0.7-    990524 151  0.2+  0.6-    990804 046  0.3-  0.5+
990501 726  0.5-  0.3+    990524 151  0.0   0.5-    990804 046  0.2-  0.5+
990501 726  0.6-  0.6-    990524 151  0.0   1.0-    990804 046  0.3-  0.3+
990501 726  0.6-  0.7-    990524 151  0.2+  1.1-    990804 046  0.1-  0.4+
990501 726  0.4-  0.2-    990524 151  0.0   0.9-    990806 046  0.2+  0.1+
990501 900  0.2+  0.3+    990524 151  0.0   0.6-    990806 046  0.1+  0.2+
990501 900  0.3+  0.5+    990524 118  0.7-  0.6-    990806 046  0.1+  0.2+
990501 151  0.1+  0.2+    990524 118  0.6-  0.6-    990806 046  0.2-  0.6+
990501 151  0.4+  0.1-    990524 118  0.4-  0.6-    990807 151  0.1-  0.2+
990501 151  0.1-  0.4-    990526 726  0.2-  0.1-    990807 151  1.0-  0.0
990501 151  0.0   0.0     990526 726  0.2-  0.7-    990807 151  0.2+  0.2+
990501 151  0.1+  0.1-    990526 726  0.4-  0.3-    990809 846 (1.7-  2.0-)
990501 151  0.3-  0.2-    990526 726  0.3-  0.3+    990809 846  1.1-  0.0
990502 726  0.4-  0.3-    990526 151  0.0   0.5+    990809 846  1.1-  0.7-
990502 726  0.1+  0.4-    990526 151  0.2-  0.2+    990809 846  0.4-  0.8-
990502 726  0.9-  0.7+    990526 151  0.4+  0.4+    990813 151 (2.6-  0.2-)
990502 726  0.3-  0.0     990526 151  0.2+  0.5+    990813 151  0.2-  0.1+
990502 726  0.2-  0.0     990526 151  0.2-  0.7-    990813 151  0.0   0.0
990502 726  0.2-  1.4-    990526 151  0.3+  0.5+    990813 151  0.5-  0.3-
990502 108  0.4+  0.8-    990526 628  0.2-  0.6+    990813 151  0.5-  0.3-
990502 108  0.6+  1.8-    990526 628  0.1-  0.5+    990820 151 (2.3+  0.8+)
990502 108  1.2-  1.4-    990526 628  0.2-  0.4+    990820 151 (2.8-  3.1+)
990502 108  1.8+  1.2-    990526 628  0.1-  0.1+    990820 151  0.2-  1.9-
990502 151  0.0   1.0+    990526 636  0.3-  0.5+    990820 151  1.3+  0.9+
990502 151  0.0   0.1-    990526 636  0.1+  0.5+    990820 151  1.4+  0.4+
990502 151  0.1-  0.2-    990526 636  0.0   0.7+    990821 118  0.1-  1.2+
990502 151  0.1-  0.1+    990527 726  0.2+  0.1+    990821 118  0.1+  0.4+
990502 151  0.1-  0.2-    990527 726  0.1+  0.4-    990825 118  0.3+  0.7-
990502 151  0.0   0.1-    990527 726  0.3+  0.1+    990825 118  0.1-  0.4-
990502 636  0.8+  0.1-    990527 726  0.1+  0.3+    990829 151  1.1-  1.0+
990502 636  0.9+  0.3-    990527 151  1.4+  1.9-    990829 151  1.6+  0.8+
990502 636  0.9+  0.2-    990527 151 (1.7+  3.0-)   990829 151 (2.3-  0.3+)
990502 636  1.0+  0.2-    990527 151  0.2-  0.8+    990902 151  0.9+  0.8-
990503 557  0.0   0.0     990527 151  0.1-  0.0     990902 151  0.8+  1.0-
990503 636  0.1+  0.1-    990527 151  0.4+  0.2+    990902 151  0.3+  1.4-
990503 557  0.0   0.1+    990527 151  0.2+  0.3+    990902 151  0.2+  0.5-
990503 636  0.1-  0.1-    990528 151  1.7-  0.9-    990902 151  1.2+  0.5-
990503 636  0.0   0.1+    990528 151  0.3+  1.2-    990902 151  0.8+  1.2-
990503 636  0.0   0.1+    990528 151  0.4-  0.2-    990902 151  0.6-  0.8-
990503 557  0.0   0.0     990528 151  0.4-  0.7+    000103 104  0.9+  0.2+
990504 557  0.0   0.0     990528 151  0.1-  0.2+    000103 104  0.4+  0.5+
990504 151  0.4+  0.2-    990528 151  0.4+  0.1-    000104 104  0.4+  0.6+
990504 151  0.0   0.0     990528 046  0.0   0.9+    000104 104  0.1-  0.4+
990504 151  0.3+  0.3+    990528 046  0.3-  0.7+    000104 104  0.4+  0.4+
990504 151  0.0   0.0     990528 046  0.1-  0.7+    000104 104  0.5+  0.6+
990504 151  0.4-  0.0     990528 046  0.0   0.7+    000104 104  0.7+  0.3+
990504 151  0.1+  0.1+    990529 726  0.1+  0.4+

